Showing default

HULIANWANG DIGUI-02, 62324

Orbit data source: Space-Track

HULIANWANG DIGUI-02, 62324 is a payload satellite owned by Zhongguo Xingwang (CN) in LEO that was launched on Mon, 16 Dec 2024 UTC via a CHANG ZHENG 5B/YZ-2 launch vehicle from the Wenchang Satellite Launch Center (WSC). Payload-class satellites include a variety of spacecraft equipped with specific instruments for various scientific and technological missions. These include communications satellites like Starlink; space stations such as the ISS; scientific satellites like the Hubble; Earth observation satellites from companies like Planet Labs, Umbra, and HawkEye 360; GPS; miniature CubeSats for education and research; and military/defense satellites.

Loading next visibility...
Identifier
62324, 2024-240B
Orbit
LEO
Country
Flag of CNCN / PRC
Related business
Manufacturer
CAST?
Mission
Operational Civil Communications
Bus & Motor
GUOWANG C, Unknown motor
Mass
~800 kg wet, ~800 kg dry
Launch date (UTC)
2024-12-16 (10 months ago)
Launch vehicle
CHANG ZHENG 5B/YZ-2
Launch site
Wenchang Satellite Launch Center (WSC)
Object type
Payload
Rocket body
Debris
Shape & HBR
Box + 2 Pan, 5.0 m
Radar Cross Section
5.935 m², Large (>1 m²)

Expand to show TLE details & history
Last TLE update: 6 hours ago

TLE from 6 hours ago
0 HULIANWANG DIGUI-02
1 62324U 24240B   25290.87432267  .00000045  00000-0  71544-4 0  9990
2 62324  86.4989  65.0740 0001620 109.3409 250.7901 13.24413724 40571
Epoch: 2025-10-17T20:59Z
TLE epoch observation values (Epoch: 2025-10-17T20:59:01.478Z)
Latitude
0.00004°
Longitude
83.70441°
Altitude
1,171.205 km
Speed
7.268 km/s
True Right ascension
04h 20m 17s
True Declination
0° 00' 00"
Sunlit
Object was in full shadow at epoch
Visualization orbit readout
Latitude
Unknown
Longitude
Unknown
Altitude
Unknown
Speed
Unknown
Apparent Right ascension
Unknown
Apparent Declination
Unknown
Sunlit
N/A
Visualization observer readout
Local Sidereal Time
21:33:40
Azimuth
Unknown
Elevation
Unknown
Doppler factor
Unknown
Orbital elements
Apogee altitude
1,166.25 km
Perigee altitude
1,163.806 km
Semi-major axis
7,543.165 km
Eccentricity
0.00016
Inclination
86.4989°
RAAN
65.074°
Arg. of periapsis
109.3409°
True anomaly
250.77257°
Mean anomaly
250.7901°
Eccentric anomaly
250.78134°
Mean motion
3.31293 °/min
Orbital period
108.67 mins
BSTAR
0.000071544
Loading maneuver chart data...
Computing Atmospheric mass density...
Loading historical data...
Loading historical data...
Loading historical data...
Loading historical data...
Loading historical data...
Loading historical data...
Loading historical data...

Documentation

Showing up to 5 results
|